This demonstration page uses our WeatherBlox Daily Observations layout. Learn more.

Left ArrowRight Arrow

36.19886, -115.1175

Hourly Observations for August 16, 2016

Temp ( °F °C ) Dew Point ( °F °C ) Humidity (%) Winds ( mph kmh ) Pressure ( in mb ) Visibility ( mi km ) Precip ( " mm )
12:53 am 00:53 Clear 89 31.7 26 -3.3 10 10 Calm 29.81 1009 10 16.0934 0 0
1:53 am 01:53 Clear 85 29.4 28 -2.2 13 13 N 5 7 29.81 1010 10 16.0934 0 0
2:53 am 02:53 Clear 84 28.9 27 -2.8 12 12 NW 5 7 29.81 1010 10 16.0934 0 0
3:53 am 03:53 Clear 81 27.2 30 -1.1 16 16 NNW 3 6 29.82 1010 10 16.0934 0 0
4:53 am 04:53 Clear 79 26.1 27 -2.8 15 15 NW 7 11 29.83 1010 10 16.0934 0 0
5:53 am 05:53 Clear 80 26.7 30 -1.1 16 16 WNW 6 9 29.84 1011 10 16.0934 0 0
6:53 am 06:53 Sunny 81 27.2 31 -0.6 16 16 Calm 29.87 1011 10 16.0934 0 0
7:53 am 07:53 Sunny 84 28.9 31 -0.6 15 15 N 3 6 29.88 1012 10 16.0934 0 0
8:53 am 08:53 Sunny 89 31.7 25 -3.9 10 10 Calm 29.88 1012 10 16.0934 0 0
9:53 am 09:53 Sunny 94 34.4 24 -4.4 8 8 ESE 5 7 29.88 1012 10 16.0934 0 0
10:53 am 10:53 Sunny 99 37.2 21 -6.1 6 6 VRB 7 11 29.87 1011 10 16.0934 0 0
11:53 am 11:53 Sunny 102 38.9 17 -8.3 5 5 S 9 15 29.84 1011 10 16.0934 0 0
12:53 pm 12:53 Sunny 104 40 15 -9.4 4 4 SW 14 22 29.83 1010 10 16.0934 0 0
1:53 pm 13:53 Sunny 106 41.1 18 -7.8 4 4 S 17 28 29.81 1009 10 16.0934 0 0
2:53 pm 14:53 Sunny 106 41.1 18 -7.8 4 4 SSW 14 22 29.79 1009 10 16.0934 0 0
3:53 pm 15:53 Sunny 106 41.1 17 -8.3 4 4 SW 13 20 29.77 1008 10 16.0934 0 0
4:53 pm 16:53 Sunny 105 40.6 10 -12.2 3 3 WSW 12 19 29.76 1008 10 16.0934 0 0
5:53 pm 17:53 Sunny 104 40 8 -13.3 3 3 WSW 13 20 29.75 1008 10 16.0934 0 0
6:53 pm 18:53 Sunny 102 38.9 11 -11.7 3 3 SSW 14 22 29.75 1008 10 16.0934 0 0
7:53 pm 19:53 Clear 99 37.2 12 -11.1 4 4 SW 6 9 29.77 1008 10 16.0934 0 0
8:53 pm 20:53 Clear 95 35 14 -10 5 5 WSW 5 7 29.79 1009 10 16.0934 0 0
9:53 pm 21:53 Clear 92 33.3 17 -8.3 6 6 W 6 9 29.8 1009 10 16.0934 0 0
10:53 pm 22:53 Clear 93 33.9 13 -10.6 5 5 W 9 15 29.79 1009 10 16.0934 0 0
11:53 pm 23:53 Clear 86 30 19 -7.2 8 8 NNE 3 6 29.81 1010 10 16.0934 0 0

Powered by AerisWeather